Regional Weather Roundup
Issued by NWS

Home | Current Version | Previous Version | Text Only | Print | Product List | Glossary Off
Versions: 1 2 3 4 5 6 7 8 9 10 11 12 13 14 15 16 17 18 19 20 21 22 23 24 25 26 27 28 29 30 31 32 33 34 35 36 37 38 39 40 41 42 43 44 45 46 47 48 49 50

000
ASUS43 KLSX 031159
RWRMO

WEATHER SUMMARY FOR MISSOURI
NATIONAL WEATHER SERVICE SPRINGFIELD MO
700 AM CDT WED JUN 03 2015

NOTE: "FAIR" INDICATES FEW OR NO CLOUDS BELOW 12,000 FEET WITH NO
       SIGNIFICANT WEATHER AND/OR OBSTRUCTIONS TO VISIBILITY.
       CURRENT SKY AND/OR WEATHER CONDITIONS ARE NOT AVAILABLE FOR
       CHILLICOTHE AND FARMINGTON.

MOZ001>031-035>038-043-044-053-054-031300-
...NORTHERN AND WESTERN MISSOURI...

CITY           SKY/WX    TMP DP  RH WIND       PRES   REMARKS
KANSAS CTY INT CLOUDY    65  62  90 S12       29.91R
6HR MIN TEMP:  64; 6HR MAX TEMP:  66; 6HR PCP:  0.07;

KANSAS C DTWN  PTSUNNY   67  60  78 VRB3      29.92R
6HR MIN TEMP:  66; 6HR MAX TEMP:  68;

LEE`S SUMMIT   PTSUNNY   66  60  81 SE5       29.94R
6HR MIN TEMP:  64; 6HR MAX TEMP:  66;

ST JOSEPH      CLOUDY    64  60  87 S7        29.91R
6HR MIN TEMP:  64; 6HR MAX TEMP:  66;

CHILLICOTHE      N/A     63  57  81 S10       29.96S
6HR MIN TEMP:  63; 6HR MAX TEMP:  64;

KIRKSVILLE     MOSUNNY   58  57  97 SE8       29.99R
6HR MIN TEMP:  56; 6HR MAX TEMP:  58;


$$
MOZ066>068-077>081-088>096-101>105-031300-
...SOUTHWEST MISSOURI...

CITY           SKY/WX    TMP DP  RH WIND       PRES   REMARKS
SPRINGFIELD    CLOUDY    61  59  93 S12       29.99S
6HR MIN TEMP:  61; 6HR MAX TEMP:  66;

JOPLIN         SUNNY     67  64  90 SE8       29.96R
6HR MIN TEMP:  65; 6HR MAX TEMP:  68;


$$
MOZ032>034-039>042-045>050-055>058-069>072-031300-
...CENTRAL MISSOURI...

CITY           SKY/WX    TMP DP  RH WIND       PRES   REMARKS
COLUMBIA       PTSUNNY   58  56  93 SE10      30.00S
6HR MIN TEMP:  56; 6HR MAX TEMP:  58;

JEFFERSON CITY PTSUNNY   58  55  90 SE9       30.01R
6HR MIN TEMP:  56; 6HR MAX TEMP:  59;

ROLLA          MOSUNNY   56  55  97 SE9       30.01S FOG
6HR MIN TEMP:  54; 6HR MAX TEMP:  56;

SEDALIA        CLOUDY    62  58  86 S8        29.99R
6HR MIN TEMP:  61; 6HR MAX TEMP:  62;

OSAGE BEACH    CLOUDY    59  55  88 SE6       30.00S

$$
MOZ051-052-059>065-031300-
...EAST CENTRAL MISSOURI...

CITY           SKY/WX    TMP DP  RH WIND       PRES   REMARKS
ST LOUIS INTL  PTSUNNY   63  55  75 CALM      30.05R
6HR MIN TEMP:  60; 6HR MAX TEMP:  63;

SPIRIT OF STL  CLOUDY    61  58  90 CALM      30.04R
6HR MIN TEMP:  54; 6HR MAX TEMP:  61;

ST CHARLES     CLOUDY    59  57  93 CALM      30.05R
6HR MIN TEMP:  56; 6HR MAX TEMP:  59;


$$
MOZ072>076-082>087-097>100-106>115-031300-
...SOUTH CENTRAL AND SOUTHEAST MISSOURI...

CITY           SKY/WX    TMP DP  RH WIND       PRES   REMARKS
CAPE GIRARDEAU CLOUDY    63  59  87 E3        30.05R
6HR MIN TEMP:  61; 6HR MAX TEMP:  63;

FARMINGTON     CLOUDY    59  54  82 SE5       30.08F
6HR MIN TEMP:  59; 6HR MAX TEMP:  61;

POPLAR BLUFF   CLOUDY    59  56  89 CALM      30.04R FOG
6HR MIN TEMP:  55; 6HR MAX TEMP:  64;

WEST PLAINS    CLOUDY    58  55  90 SE3       30.05S FOG
6HR MIN TEMP:  54; 6HR MAX TEMP:  58;


$$



USA.gov is the U.S. government's official web portal to all federal, state and local government web resources and services.